Regional Weather Roundup
Issued by NWS State College, PA

Home | Current Version | Previous Version | Graphics & Text | Print | Product List | Glossary Off
Versions: 1 2 3 4 5 6 7 8 9 10 11 12 13 14 15 16 17 18 19 20 21 22 23 24 25 26 27 28 29 30 31 32 33 34 35 36 37 38 39 40 41 42 43 44 45 46 47 48 49 50

765
ASUS41 KCTP 202210
RWRCTP

REGIONAL WEATHER ROUNDUP
NATIONAL WEATHER SERVICE STATE COLLEGE PA
500 PM EST TUE FEB 20 2018

Note: "fair" indicates few or no clouds below 12,000 feet with no
significant weather and/or obstructions to visibility.

* = STATION THAT DOES NOT REPORT PRECIPITATION /E.G. RAIN...SNOW...ETC/
    THUNDER OR FOG.

PAZ002>004-007>009-013>016-020>023-029>032-202300-
WESTERN PENNSYLVANIA

CITY           SKY/WX    TMP DP  RH WIND       PRES   REMARKS
ERIE           RAIN      64  59  83 SW3       30.12R
MEADVILLE      CLOUDY    67  58  72 S5        30.15R
FRANKLIN*      CLOUDY    68  56  65 S5        30.18R
NEW CASTLE     FAIR      73  55  53 SW5       30.16R
BEAVER COUNTY  MOSUNNY   73  52  46 SW10G16   30.16S
BUTLER*        FAIR      75  53  46 SW9G17    30.17R
PITTSBURGH INT PTSUNNY   77  50  38 SW14      30.16R
PITTSBURGH     FAIR      76  48  37 SW14G20   30.17R
INDIANA*       CLEAR     75  54  46 SW13      30.23R
LATROBE        CLEAR     75  50  41 SW12G20   30.19S
WASHINGTON CO* FAIR      76  51  41 SW15G22   30.20R
$$

PAZ004>006-010>012-017>019-024>028-033>037-041-042-045-046-049>053-202300-
CENTRAL PENNSYLVANIA

CITY           SKY/WX    TMP DP  RH WIND       PRES   REMARKS
BRADFORD       CLOUDY    66  55  67 VRB5      30.20R
DUBOIS         FAIR      71  51  49 SW9       30.19R
CLEARFIELD     FAIR      74  53  48 SW9       30.20R
JOHNSTOWN      FAIR      72  49  44 SW8G20    30.23R
ALTOONA        FAIR      73  53  49 S10       30.22R
STATE COLLEGE  PTCLDY    72  54  53 S5        30.21S
WILLIAMSPORT   FAIR      57  52  83 CALM      30.24R
SELINSGROVE    FAIR      66  54  65 CALM      30.24R
FT INDIANTOWN  MOCLDY    63  63 100 E3        30.26R
CAPITAL CITY   FAIR      69  56  62 CALM      30.25R
HARRISBURG     MOCLDY    64  54  69 CALM      30.24R
YORK           FAIR      75  54  47 SW8       30.24R
$$

PAZ038>040-043-044-047-048-054-055-060>062-067>071-202300-
EASTERN PENNSYLVANIA

CITY           SKY/WX    TMP DP  RH WIND       PRES   REMARKS
SCRANTON       FAIR      63  52  67 CALM      30.25R
MOUNT POCONO   FAIR      61  52  72 S7        30.28R
ALLENTOWN      FAIR      65  53  65 CALM      30.28R
QUAKERTOWN*    CLEAR     68  57  68 S5        30.29R
READING        FAIR      63  57  81 N5        30.26R
LANCASTER      FAIR      73  57  57 S8        30.26R
COATESVILLE    FAIR      68 -38   1 S8        30.30R
POTTSTOWN      FAIR      70  56  61 VRB7      30.29R
BLUE BELL      FAIR      68  57  68 S5        30.30R
DOYLESTOWN     FAIR      70  55  59 S5        30.28R
WILLOW GROVE   NOT AVBL
NORTH PHILA    FAIR      74  58  57 SW10      30.30R
PHILADELPHIA   MOCLDY    71  57  61 S10       30.29R
$$




USA.gov is the U.S. government's official web portal to all federal, state and local government web resources and services.